Back to catalog

METEOR 2-5 DEB

AlivePO
NORAD 28974·DEBRIS·🇷🇺 Russia

Launched Oct 31, 1979 from Plesetsk Cosmodrome

Loading…

Next Passes (next 24 hours)

TLE

FreshSource: Space-Track

Epoch: Sep 14, 2026, 13:30 UTC

1 28974U 79095K   26257.56263123  .00006006  00000-0  15487-2 0  9999
2 28974  81.1973 357.5017 0013299  17.8650 342.3007 14.49911191 63211

Track METEOR 2-5 DEB in real time with AllMySat

Download on the App Store